TimeCST,TemperatureF,Dew PointF,Humidity,Sea Level PressureIn,VisibilityMPH,Wind Direction,Wind SpeedMPH,Gust SpeedMPH,PrecipitationIn,Events,Conditions,WindDirDegrees,DateUTC
12:02 AM,44.6,42.8,93,30.20,0.2,West,4.6,-,N/A,Fog,Fog,260,2012-11-21 06:02:00
12:10 AM,46.4,44.6,93,30.20,0.2,WNW,4.6,-,N/A,Fog,Fog,300,2012-11-21 06:10:00
12:52 AM,46.0,44.1,93,30.20,0.2,WNW,3.5,-,N/A,Fog,Fog,290,2012-11-21 06:52:00
1:52 AM,45.0,44.1,97,30.22,0.2,WNW,5.8,-,N/A,Fog,Fog,300,2012-11-21 07:52:00
2:52 AM,45.0,43.0,93,30.22,0.2,Calm,Calm,-,N/A,Fog,Fog,0,2012-11-21 08:52:00
3:52 AM,44.1,42.1,93,30.22,0.2,South,3.5,-,N/A,Fog,Fog,170,2012-11-21 09:52:00
4:52 AM,43.0,42.1,97,30.24,0.2,Calm,Calm,-,N/A,Fog,Fog,0,2012-11-21 10:52:00
5:52 AM,43.0,41.0,93,30.24,0.2,WSW,4.6,-,N/A,Fog,Fog,250,2012-11-21 11:52:00
6:52 AM,42.1,39.9,92,30.26,0.2,Calm,Calm,-,N/A,Fog,Fog,0,2012-11-21 12:52:00
7:01 AM,42.8,39.2,87,30.25,0.2,WSW,3.5,-,N/A,Fog,Fog,240,2012-11-21 13:01:00
7:52 AM,42.1,41.0,96,30.26,0.2,SSE,3.5,-,N/A,Fog,Fog,150,2012-11-21 13:52:00
8:52 AM,42.1,41.0,96,30.29,0.2,West,4.6,-,N/A,Fog,Fog,270,2012-11-21 14:52:00
9:52 AM,44.1,42.1,93,30.29,0.2,SW,3.5,-,N/A,Fog,Fog,220,2012-11-21 15:52:00
10:52 AM,46.0,45.0,96,30.28,0.2,South,6.9,-,N/A,Fog,Fog,190,2012-11-21 16:52:00
10:54 AM,46.4,44.6,93,30.27,0.2,South,4.6,-,N/A,Fog,Fog,180,2012-11-21 16:54:00
11:08 AM,46.4,46.4,100,30.26,0.5,South,4.6,-,N/A,Fog,Fog,190,2012-11-21 17:08:00
11:52 AM,48.9,46.9,93,30.25,0.8,SW,4.6,-,N/A,,Overcast,230,2012-11-21 17:52:00
11:56 AM,48.2,46.4,93,30.24,2.0,SW,4.6,-,N/A,,Overcast,220,2012-11-21 17:56:00
12:52 PM,51.1,48.0,89,30.23,2.0,SW,5.8,-,N/A,,Overcast,220,2012-11-21 18:52:00
1:17 PM,53.6,48.2,82,30.22,3.0,SW,5.8,-,N/A,,Haze,220,2012-11-21 19:17:00
1:35 PM,53.6,48.2,82,30.22,3.0,South,4.6,-,N/A,,Overcast,180,2012-11-21 19:35:00
1:52 PM,54.0,48.9,83,30.22,5.0,South,4.6,-,N/A,,Haze,180,2012-11-21 19:52:00
2:06 PM,55.4,48.2,77,30.20,6.0,South,4.6,-,N/A,,Haze,180,2012-11-21 20:06:00
2:52 PM,59.0,48.9,69,30.19,9.0,South,9.2,-,N/A,,Clear,180,2012-11-21 20:52:00
3:52 PM,57.9,48.0,70,30.18,10.0,SSW,11.5,-,N/A,,Clear,200,2012-11-21 21:52:00
4:52 PM,54.0,46.9,77,30.17,8.0,SSW,5.8,-,N/A,,Clear,200,2012-11-21 22:52:00
5:52 PM,48.9,46.0,90,30.17,6.0,South,5.8,-,N/A,,Clear,170,2012-11-21 23:52:00
6:52 PM,51.1,46.9,86,30.17,6.0,South,10.4,-,N/A,,Clear,170,2012-11-22 00:52:00
7:52 PM,50.0,46.0,86,30.17,6.0,South,9.2,-,N/A,,Clear,170,2012-11-22 01:52:00
8:52 PM,48.9,45.0,86,30.16,4.0,South,8.1,-,N/A,,Clear,170,2012-11-22 02:52:00
9:52 PM,48.9,45.0,86,30.16,4.0,South,6.9,-,N/A,,Clear,180,2012-11-22 03:52:00
10:52 PM,52.0,46.0,80,30.15,6.0,South,13.8,-,N/A,,Haze,180,2012-11-22 04:52:00
11:52 PM,51.1,45.0,80,30.13,7.0,South,10.4,-,N/A,,Clear,180,2012-11-22 05:52:00